FW6663 Weather Reports


time (UTC)temp
C
wind
direction
speed
KPH
gust
KPH
rain 1hr
cm
rain 24hr
cm
rain mn
cm
humidity
%
barometer
mb
20260507161532 14 135 0.0 1.6 0.00 0.00 0.00 66 1016.0
20260507160036 13 134 0.0 1.6 0.00 0.00 0.00 65 1016.1
20260507154530 13 134 0.0 1.6 0.00 0.00 0.00 66 1016.1
20260507153033 14 134 0.0 1.6 0.00 0.00 0.00 65 1016.1
20260507151529 14 0 0.0 1.6 0.00 0.00 0.00 66 1016.2
20260507150030 14 0.0 0.0 0.00 0.00 0.00 64 1016.2
20260507144531 14 145 1.6 0.0 0.00 0.00 0.00 65 1016.1
20260507143033 13 0.0 0.0 0.00 0.00 0.00 67 1016.2
20260507141530 13 0.0 0.0 0.00 0.00 0.00 65 1016.2
20260507140031 13 0.0 0.0 0.00 0.00 0.00 66 1016.2
20260507134531 14 249 6.4 9.7 0.00 0.00 0.00 65 1016.2
20260507133030 15 246 3.2 8.0 0.00 0.00 0.00 62 1016.2
20260507131535 15 0 1.6 4.8 0.00 0.00 0.00 63 1016.2
20260507130029 15 357 1.6 6.4 0.00 0.00 0.00 63 1016.3
20260507124532 15 250 0.0 4.8 0.00 0.00 0.00 66 1016.3
20260507123030 15 243 1.6 4.8 0.00 0.00 0.00 64 1016.3
20260507121530 14 255 1.6 6.4 0.00 0.00 0.00 63 1016.3
20260507120027 14 0.0 0.0 0.00 0.00 0.00 64 1016.3
20260507114531 14 268 0.0 3.2 0.00 0.00 0.00 66 1016.3
20260507113034 14 200 0.0 3.2 0.00 0.00 0.00 66 1016.2
20260507111533 15 200 4.8 8.0 0.00 0.00 0.00 68 1016.3
20260507110028 14 113 4.8 6.4 0.00 0.00 0.00 68 1016.4
20260507104531 13 153 0.0 3.2 0.00 0.00 0.00 73 1016.3
20260507103032 14 165 0.0 4.8 0.00 0.00 0.00 73 1016.4
20260507101549 14 149 0.0 4.8 0.00 0.00 0.00 73 1016.4
20260507100034 13 0.0 0.0 0.00 0.00 0.00 76 1016.4
20260507094529 13 160 1.6 4.8 0.00 0.00 0.00 76 1016.3
20260507093032 13 151 0.0 1.6 0.00 0.00 0.00 74 1016.2
20260507091548 13 141 1.6 4.8 0.00 0.00 0.00 73 1016.2
20260507090032 12 144 0.0 3.2 0.00 0.00 0.00 78 1016.2
20260507084529 12 139 0.0 1.6 0.00 0.00 0.00 78 1016.1
20260507083031 11 138 1.6 4.8 0.00 0.00 0.00 78 1016.1
20260507081545 11 139 1.6 3.2 0.00 0.00 0.00 78 1016.0
20260507080030 11 139 1.6 3.2 0.00 0.00 0.00 82 1015.9
20260507074536 11 142 0.0 0.0 0.00 0.00 0.00 83 1015.8
20260507073031 10 0 0.0 0.0 0.00 0.00 0.00 85 1015.8
20260507071528 10 0 0.0 1.6 0.00 0.00 0.00 89 1015.7
20260507070030 9 0 0.0 1.6 0.00 0.00 0.00 90 1015.7
20260507064529 8 0 0.0 1.6 0.00 0.00 0.00 91 1015.6
20260507063030 8 0 0.0 0.0 0.00 0.00 0.00 92 1015.5
20260507061534 8 0 0.0 0.0 0.00 0.00 0.00 92 1015.2
20260507060032 8 0 0.0 0.0 0.00 0.00 0.00 93 1015.3
20260507054530 8 0 0.0 0.0 0.00 0.00 0.00 93 1015.0
20260507053028 7 0 0.0 0.0 0.00 0.00 0.00 93 1014.9
20260507051530 7 0 0.0 0.0 0.00 0.00 0.00 93 1014.9
20260507050034 7 0 0.0 0.0 0.00 0.00 0.00 93 1014.6
20260507044542 7 0 0.0 0.0 0.00 0.00 0.00 93 1014.4
20260507043034 7 0 0.0 0.0 0.00 0.00 0.00 92 1014.4
20260507041531 7 0 0.0 0.0 0.00 0.00 0.00 92 1014.4
20260507040030 7 0 0.0 0.0 0.00 0.00 0.00 92 1014.2
20260507034532 7 0 0.0 0.0 0.00 0.00 0.00 92 1014.2
20260507033029 7 0 0.0 0.0 0.00 0.00 0.00 92 1014.2
20260507031529 7 0 0.0 0.0 0.00 0.00 0.00 92 1014.1
20260507030028 7 0 0.0 0.0 0.00 0.00 0.00 92 1014.0
20260507024531 7 0 0.0 0.0 0.00 0.00 0.00 92 1014.0
20260507023028 7 0 0.0 0.0 0.00 0.00 0.00 92 1014.0
20260507021527 7 0 0.0 0.0 0.00 0.00 0.00 92 1013.9
20260507020032 7 0 0.0 0.0 0.00 0.00 0.00 92 1013.8
20260507014529 7 0 0.0 0.0 0.00 0.00 0.00 92 1013.6
20260507013032 7 0 0.0 0.0 0.00 0.00 0.00 92 1013.6
20260507011531 7 0 0.0 0.0 0.00 0.00 0.00 92 1013.5
20260507010030 7 0 0.0 0.0 0.00 0.00 0.00 92 1013.6
20260507004528 7 0 0.0 0.0 0.00 0.00 0.00 92 1013.4
20260507003029 7 0 0.0 0.0 0.00 0.00 0.00 92 1013.4
20260507001528 7 0 0.0 0.0 0.00 0.00 0.00 92 1013.3
20260507000030 7 0 0.0 0.0 0.00 0.00 0.00 92 1013.2
20260506234528 7 0 0.0 0.0 0.00 0.00 0.00 92 1013.1
20260506233030 7 0 0.0 0.0 0.00 0.00 0.00 92 1013.1
20260506231529 7 0 0.0 0.0 0.00 0.00 0.00 92 1013.0
20260506230029 6 0 0.0 0.0 0.00 0.00 0.00 91 1012.9
20260506224533 6 0 0.0 0.0 0.00 0.00 0.00 92 1012.8
20260506223030 6 0 0.0 0.0 0.00 0.00 0.00 91 1012.7
20260506221531 6 0 0.0 0.0 0.00 0.00 0.00 91 1012.5
20260506220035 6 0 0.0 0.0 0.00 0.00 0.00 90 1012.6
20260506214529 6 0 0.0 0.0 0.00 0.00 0.00 89 1012.6
20260506213028 7 0 0.0 0.0 0.00 0.00 0.00 89 1012.5
20260506211529 7 0 0.0 0.0 0.00 0.00 0.00 88 1012.4
20260506210029 8 0 0.0 0.0 0.00 0.00 0.00 86 1012.2
20260506204530 8 0 0.0 1.6 0.00 0.00 0.00 85 1012.1
20260506203030 8 0 0.0 0.0 0.00 0.00 0.00 85 1012.1
20260506201541 9 0 0.0 0.0 0.00 0.00 0.00 84 1011.9
20260506200029 9 0 0.0 1.6 0.00 0.00 0.00 83 1011.8
20260506194529 10 144 0.0 1.6 0.00 0.00 0.00 85 1011.6
20260506193030 10 0 0.0 1.6 0.00 0.00 0.00 85 1011.6
20260506191532 10 134 0.0 4.8 0.00 0.00 0.00 87 1011.3
20260506190032 10 0 0.0 1.6 0.00 0.00 0.00 88 1011.0
20260506184528 10 129 0.0 3.2 0.00 0.00 0.00 87 1010.8
20260506183030 11 129 1.6 3.2 0.00 0.00 0.00 87 1010.6
20260506181530 11 129 1.6 1.6 0.00 0.00 0.00 87 1010.5
20260506180031 11 129 1.6 3.2 0.00 0.00 0.00 86 1010.2
20260506174529 11 129 1.6 1.6 0.00 0.00 0.00 87 1010.2
20260506173028 11 129 1.6 1.6 0.00 0.00 0.00 86 1010.0
20260506171542 11 129 1.6 3.2 0.00 0.00 0.00 85 1009.8
20260506170032 11 129 1.6 3.2 0.00 0.00 0.00 85 1009.7
20260506164532 11 129 3.2 4.8 0.00 0.00 0.00 85 1009.6
20260506163038 11 0 1.6 4.8 0.00 0.00 0.00 87 1009.6